Location: Aragoneses
(41.0275°N, 4.3847°W)
Time: 15:53:10
(UTC+00:00)

SPOT 1/Viking Rocket - Pass Details

Date: 17 March 2026
Orbit: 773 x 789 km, 98.2° (Epoch: 18 April)

Event Time Altitude Azimuth Distance (km) Brightness Sun altitude
Rises 18:58:32 0° 188° (S) 3,249 6.8 -6.9°
Reaches altitude 10° 19:01:01 10° 197° (SSW) 2,328 6.2 -7.4°
Maximum altitude 19:05:43 36° 263° (W) 1,223 5.4 -8.2°
Drops below altitude 10° 19:10:29 10° 330° (NNW) 2,353 6.6 -9.1°
Sets 19:13:01 0° 339° (NNW) 3,288 7.2 -9.6°
